SID,Date,Time,pH,Iron,Mn,Color,Turbidity,Analyst
46007,01/01/2008,"740       ",6.15,0.77,0.700,36,2.82,"TCF                                               "
46008,01/02/2008,"810       ",6.27,0.73,0.500,41,3.39,"DF                                                "
46009,01/03/2008,"640       ",5.93,0.74,0.600,40,2.68,"DF                                                "
46010,01/04/2008,"812       ",6.05,0.74,0.600,37,3.09,"TL                                                "
46011,01/05/2008,"930       ",6.09,0.72,0.500,33,2.94,"TL                                                "
46012,01/06/2008,"1000      ",5.94,0.50,0.700,40,2.82,"SBK                                               "
46013,01/07/2008,"935       ",6.14,0.69,0.700,33,2.39,"TCF                                               "
46014,01/08/2008,"955       ",6.07,0.61,0.600,37,2.74,"RH                                                "
46015,01/09/2008,"635       ",5.92,0.72,0.600,40,3.90,"DF                                                "
46016,01/10/2008,"645       ",5.96,0.67,0.600,35,2.93,"DF                                                "
46017,01/11/2008,"900       ",5.97,0.79,0.700,42,3.79,"TL                                                "
46018,01/12/2008,"940       ",6.00,0.67,0.600,35,2.92,"TL                                                "
46019,01/13/2008,"845       ",5.97,0.67,0.600,34,2.77,"tl                                                "
46020,01/14/2008,"935       ",6.05,0.65,0.500,34,2.56,"tcf                                               "
46021,01/15/2008,"935       ",6.12,0.61,0.500,36,2.93,"RH                                                "
46022,01/16/2008,"1410      ",6.04,0.60,0.500,41,2.94,"JF                                                "
46023,01/17/2008,"650       ",6.02,0.68,0.500,38,2.90,"SC                                                "
46024,01/18/2008,"855       ",6.00,0.74,0.600,37,2.70,"TL                                                "
46025,01/19/2008,"905       ",6.01,0.72,0.500,35,2.67,"TL                                                "
46026,01/20/2008,"842       ",6.02,0.70,0.600,37,2.73,"TL                                                "
46027,01/21/2008,"820       ",6.13,0.75,0.400,22,3.57,"DF                                                "
46028,01/22/2008,"800       ",5.99,0.73,0.060,34,3.12,"DF                                                "
46029,01/23/2008,"800       ",6.01,0.68,0.600,28,3.06,"DF                                                "
46030,01/24/2008,"635       ",5.96,0.61,0.500,36,2.80,"DF                                                "
46031,01/25/2008,"0842      ",6.00,0.69,0.600,34,2.77,"TL                                                "
46032,01/26/2008,"900       ",5.98,0.72,0.600,33,2.70,"TL                                                "
46033,01/27/2008,"0935      ",5.95,0.64,0.700,39,2.66,"TL                                                "
46034,01/28/2008,"0832      ",6.16,0.67,0.600,35,2.08,"TCF                                               "
46035,01/29/2008,"745       ",6.03,0.67,0.400,37,2.80,"DF                                                "
46036,01/30/2008,"645       ",3.03,0.61,0.400,36,2.68,"DF                                                "
46037,01/31/2008,"730       ",6.09,0.73,0.600,45,3.09,"DF                                                "
46038,02/01/2008,"925       ",5.91,0.69,0.600,39,2.75,"TL                                                "
46039,02/02/2008,"845       ",5.67,0.71,0.700,37,2.99,"TL                                                "
46040,02/03/2008,"850       ",6.00,0.65,0.600,36,2.40,"tl                                                "
46041,02/04/2008,"0600      ",6.07,0.68,0.600,35,2.45,"sc                                                "
46042,02/05/2008,"835       ",6.15,0.65,0.600,37,2.59,"DF                                                "
46043,02/06/2008,"830       ",5.86,0.92,0.600,65,4.57,"DF                                                "
46044,02/07/2008,"645       ",5.99,0.60,0.500,43,2.56,"DF                                                "
46045,02/08/2008,"0915      ",5.95,0.61,0.500,42,2.32,"TL                                                "
46046,02/09/2008,"0842      ",5.99,0.66,0.600,43,2.57,"TL                                                "
46047,02/10/2008,"910       ",5.91,0.64,0.600,45,2.72,"TL                                                "
46048,02/11/2008,"0940      ",5.94,0.61,0.500,42,2.35,"TCF                                               "
46049,02/12/2008,"1010      ",6.01,0.59,0.300,36,2.22,"DF                                                "
46050,02/13/2008,"1200      ",6.01,0.63,0.500,47,2.71,"TL                                                "
46051,02/14/2008,"905       ",6.04,0.62,0.600,45,2.50,"TL                                                "
46052,02/15/2008,"840       ",5.94,0.65,0.700,50,2.80,"TL                                                "
46053,02/16/2008,"900       ",6.15,0.71,0.700,52,2.87,"TL                                                "
46054,02/17/2008,"0850      ",5.92,0.66,0.500,54,2.90,"TL                                                "
46055,02/18/2008,"840       ",6.01,0.68,0.600,52,2.81,"JF                                                "
46056,02/19/2008,"0800      ",5.86,0.64,0.500,54,2.67,"DF                                                "
46057,02/20/2008,"0800      ",6.00,0.62,0.400,57,2.63,"DF                                                "
46058,02/21/2008,"630       ",5.93,0.73,0.500,59,3.56,"DF                                                "
46059,02/22/2008,"926       ",6.03,0.78,0.500,64,3.39,"TL                                                "
46060,02/23/2008,"930       ",6.06,0.75,0.400,61,2.93,"TL                                                "
46061,02/24/2008,"0856      ",6.05,0.72,0.400,59,2.70,"tl                                                "
46062,02/25/2008,"0950      ",6.07,0.86,0.500,99,3.24,"TCF                                               "
46063,02/26/2008,"715       ",6.21,0.81,0.400,83,2.97,"DF                                                "
46064,02/27/2008,"655       ",6.00,0.58,0.400,71,2.74,"DF                                                "
46065,02/28/2008,"720       ",6.49,0.56,0.400,72,2.55,"DF                                                "
46066,02/29/2008,"935       ",5.99,0.49,0.400,65,1.95,"TL                                                "
46067,03/01/2008,"925       ",6.02,0.49,0.400,65,1.61,"TL                                                "
46068,03/02/2008,"0855      ",5.95,0.52,0.400,65,1.77,"TL                                                "
46069,03/03/2008,"0905      ",6.12,0.52,0.500,64,1.69,"TCF                                               "
46070,03/04/2008,"800       ",6.05,0.49,0.030,58,1.77,"DF                                                "
46071,03/05/2008,"840       ",6.08,0.53,0.500,64,1.93,"TCF                                               "
46072,03/06/2008,"645       ",5.87,0.54,0.300,71,2.25,"DF                                                "
46073,03/07/2008,"835       ",6.15,0.51,0.400,67,2.09,"TL                                                "
46074,03/08/2008,"0900      ",5.92,0.49,0.300,67,1.99,"TL                                                "
46075,03/09/2008,"1050      ",6.01,0.51,0.400,63,1.96,"tl                                                "
46076,03/10/2008,"1110      ",6.04,0.46,0.400,64,2.01,"TCF                                               "
46077,03/11/2008,"750       ",6.06,0.42,0.300,67,1.88,"DF                                                "
46078,03/12/2008,"700       ",6.09,0.41,0.300,70,1.79,"DF                                                "
46079,03/13/2008,"0650      ",6.11,0.42,0.300,68,2.04,"DF                                                "
46080,03/14/2008,"905       ",5.98,0.51,0.400,67,2.19,"TL                                                "
46081,03/15/2008,"923       ",5.82,0.52,0.300,69,2.27,"TL                                                "
46082,03/16/2008,"0905      ",5.99,0.50,0.300,67,1.99,"TL                                                "
46083,03/17/2008,"0825      ",6.07,0.53,0.600,58,1.94,"JF                                                "
46084,03/18/2008,"820       ",5.79,0.49,0.400,63,2.15,"DF                                                "
46085,03/19/2008,"0640      ",5.95,0.40,0.900,67,2.11,"DF                                                "
46086,03/20/2008,"900       ",5.97,0.44,0.300,66,2.06,"DF                                                "
46087,03/21/2008,"717       ",5.92,0.45,0.300,69,2.15,"TL                                                "
46088,03/22/2008,"1200      ",5.92,0.43,0.200,60,1.79,"TL                                                "
46089,03/23/2008,"0810      ",5.86,0.40,0.300,65,2.04,"SV                                                "
46090,03/24/2008,"0810      ",5.99,0.48,0.600,59,1.84,"JF                                                "
46091,03/25/2008,"825       ",5.98,0.43,0.300,62,1.89,"DF                                                "
46092,03/26/2008,"0720      ",6.04,0.47,0.400,64,1.99,"DF                                                "
46093,03/27/2008,"715       ",6.00,0.51,0.300,68,2.36,"DF                                                "
46094,03/28/2008,"930       ",5.96,0.46,0.300,63,1.91,"TL                                                "
46095,03/29/2008,"850       ",5.86,0.45,0.300,61,1.83,"TL                                                "
46096,03/30/2008,"0854      ",5.91,0.43,0.300,55,1.57,"TL                                                "
46097,03/31/2008,"0840      ",6.02,0.46,0.600,58,1.50,"JF                                                "
46098,04/01/2008,"755       ",6.17,0.41,0.300,57,1.80,"DF                                                "
46099,04/02/2008,"1445      ",6.25,0.45,0.400,54,1.67,"TCF                                               "
46100,04/03/2008,"915       ",5.92,0.48,0.300,57,1.82,"TL                                                "
46101,04/04/2008,"1000      ",5.81,0.50,0.400,59,2.19,"TL                                                "
46102,04/05/2008,"853       ",6.00,0.47,0.300,59,1.94,"TL                                                "
46103,04/06/2008,"1005      ",6.00,0.42,0.200,53,1.76,"TL                                                "
46104,04/07/2008,"0835      ",6.14,0.44,0.300,52,1.67,"JF                                                "
46105,04/08/2008,"1000      ",5.76,0.42,0.300,54,1.77,"DF                                                "
46106,04/09/2008,"1415      ",5.72,0.42,0.300,71,4.55,"SC                                                "
46107,04/10/2008,"915       ",5.78,0.41,0.300,58,1.84,"JF                                                "
46108,04/11/2008,"905       ",5.97,0.46,0.300,57,1.80,"TL                                                "
46109,04/12/2008,"925       ",5.96,0.43,0.300,55,1.75,"TL                                                "
46110,04/13/2008,"837       ",6.01,0.49,0.300,57,1.92,"TL                                                "
46111,04/14/2008,"0815      ",6.25,0.46,0.600,54,1.48,"JF                                                "
46112,04/15/2008,"815       ",6.19,0.41,0.400,52,1.87,"DF                                                "
46113,04/16/2008,"0820      ",6.03,0.37,0.300,50,1.30,"DF                                                "
46114,04/17/2008,"0815      ",6.02,0.40,0.300,56,1.60,"DF                                                "
46115,04/18/2008,"730       ",6.01,0.40,0.300,59,1.69,"TL                                                "
46116,04/19/2008,"955       ",5.90,0.37,0.400,50,1.41,"TL                                                "
46117,04/20/2008,"0955      ",5.80,0.46,0.300,60,1.67,"TL                                                "
46118,04/21/2008,"845       ",5.98,0.42,0.400,58,1.53,"DF                                                "
46119,04/22/2008,"840       ",6.13,0.37,0.000,57,1.63,"DF                                                "
46120,04/23/2008,"1730      ",6.06,0.43,0.300,58,1.60,"tcf                                               "
46121,04/24/2008,"0830      ",5.98,0.43,0.300,51,1.79,"DF                                                "
46122,04/25/2008,"1005      ",5.92,0.43,0.200,50,1.45,"TL                                                "
46123,04/26/2008,"1010      ",5.97,0.45,0.300,53,1.65,"TL                                                "
46124,04/27/2008,"0855      ",6.06,0.41,0.200,56,1.76,"TL                                                "
46125,04/28/2008,"0825      ",6.16,0.45,0.500,55,1.68,"JF                                                "
46126,04/29/2008,"730       ",5.93,0.37,0.400,51,1.48,"DF                                                "
46127,04/30/2008,"820       ",5.89,0.39,0.300,52,1.36,"DF                                                "
46128,05/01/2008,"645       ",6.31,0.43,0.300,63,1.84,"DF                                                "
46129,05/02/2008,"930       ",6.01,0.40,0.200,52,1.67,"TL                                                "
46130,05/03/2008,"858       ",5.90,0.41,0.300,50,1.59,"TL                                                "
46131,05/04/2008,"0840      ",6.04,0.43,0.300,55,1.89,"TL                                                "
46132,05/05/2008,"0850      ",6.02,0.42,0.300,54,1.67,"JF                                                "
46133,05/06/2008,"830       ",6.05,0.39,0.200,55,1.39,"DF                                                "
46134,05/07/2008,"830       ",6.10,0.43,0.300,58,1.55,"DF                                                "
46135,05/08/2008,"0900      ",6.05,0.44,0.200,59,1.42,"DF                                                "
46136,05/09/2008,"950       ",6.02,0.49,0.300,73,1.85,"TML                                               "
46137,05/10/2008,"830       ",5.95,0.45,0.300,69,1.63,"TML                                               "
46138,05/11/2008,"0845      ",5.98,0.47,0.200,69,1.75,"tl                                                "
46139,05/12/2008,"0810      ",6.10,0.48,0.300,68,1.51,"JF                                                "
46140,05/13/2008,"0915      ",6.04,0.46,0.200,63,1.25,"DF                                                "
46141,05/14/2008,"0840      ",6.06,0.45,0.300,62,1.32,"DF                                                "
46142,05/15/2008,"1715      ",5.98,0.48,0.300,69,2.09,"TCF                                               "
46143,05/16/2008,"0905      ",5.96,0.47,0.300,63,1.39,"TL                                                "
46144,05/17/2008,"925       ",5.96,0.46,0.200,62,1.42,"TML                                               "
46145,05/18/2008,"0830      ",5.99,0.44,0.300,69,1.56,"tl                                                "
46146,05/19/2008,"0840      ",5.90,0.44,0.300,49,1.29,"RH                                                "
46147,05/20/2008,"845       ",5.88,0.42,0.300,59,1.28,"DF                                                "
46148,05/21/2008,"820       ",6.00,0.40,0.300,58,1.19,"DF                                                "
46149,05/22/2008,"830       ",5.96,0.41,0.200,35,1.16,"DF                                                "
46150,05/23/2008,"740       ",6.04,0.49,0.300,68,1.59,"tcf                                               "
46151,05/24/2008,"1005      ",6.01,0.42,0.200,65,1.35,"TML                                               "
46152,05/25/2008,"905       ",6.00,0.45,0.300,64,1.33,"TL                                                "
46153,05/26/2008,"847       ",6.01,0.47,0.300,69,1.50,"TML                                               "
46154,05/27/2008,"1000      ",6.13,0.48,0.200,70,1.58,"DF                                                "
46155,05/28/2008,"830       ",5.96,0.48,0.200,72,1.47,"DF                                                "
46156,05/29/2008,"920       ",6.02,0.43,0.300,78,1.59,"RH                                                "
46157,05/30/2008,"0832      ",5.97,0.45,0.300,64,1.47,"TL                                                "
46158,05/31/2008,"0930      ",6.03,0.44,0.200,60,1.37,"tl                                                "
46159,06/01/2008,"0840      ",5.96,0.45,0.200,57,1.24,"TL                                                "
46160,06/02/2008,"745       ",5.99,0.44,0.400,55,1.12,"JF                                                "
46161,06/03/2008,"850       ",6.03,0.42,0.300,54,1.05,"DF                                                "
46162,06/04/2008,"855       ",5.93,0.40,0.300,56,1.20,"DF                                                "
46163,06/05/2008,"640       ",6.08,0.38,0.300,58,1.38,"DF                                                "
46164,06/06/2008,"935       ",5.96,0.40,0.400,60,1.14,"TL                                                "
46165,06/07/2008,"925       ",5.97,0.41,0.300,56,1.09,"TL                                                "
46166,06/08/2008,"0907      ",5.98,0.40,0.200,52,1.03,"TL                                                "
46167,06/09/2008,"0715      ",5.90,0.42,0.500,56,1.14,"JF                                                "
46168,06/10/2008,"850       ",6.13,0.33,0.000,47,1.23,"DF                                                "
46169,06/11/2008,"820       ", ,0.43,0.300,52,1.39,"DF                                                "
46170,06/12/2008,"815       ",5.97,0.44,0.200,46,1.19,"DF                                                "
46171,06/13/2008,"900       ",6.00,0.52,0.400,55,1.89,"TL                                                "
46172,06/14/2008,"830       ",6.00,0.42,0.400,51,1.36,"tl                                                "
46173,06/15/2008,"0955      ",6.00,0.45,0.300,53,1.87,"TL                                                "
46174,06/16/2008,"915       ",6.07,0.39,0.400,52,1.69,"DF                                                "
46175,06/17/2008,"830       ",6.05,0.49,0.400,48,1.48,"DF                                                "
46176,06/18/2008,"830       ",6.07,0.40,0.200,42,1.08,"DF                                                "
46177,06/19/2008,"900       ",6.07,0.39,0.300,44,1.07,"DF                                                "
46178,06/20/2008,"945       ",5.95,0.35,0.200,44,0.89,"TL                                                "
46179,06/21/2008,"820       ",5.99,0.35,0.300,41,0.92,"TML                                               "
46180,06/22/2008,"745       ",6.04,0.35,0.300,39,0.92,"jf                                                "
46181,06/23/2008,"0745      ",6.04,0.35,0.300,39,0.92,"jf                                                "
46182,06/24/2008,"1030      ",5.88,0.35,0.400,38,0.96,"TF                                                "
46183,06/25/2008,"815       ",6.00,0.34,0.400,38,0.95,"JF                                                "
46184,06/26/2008,"912       ",6.00,0.39,0.300,39,0.99,"TML                                               "
46185,06/27/2008,"850       ",6.15,0.37,0.400,34,0.85,"TML                                               "
46186,06/28/2008,"0817      ",5.92,0.33,0.300,44,1.07,"TF                                                "
46187,06/29/2008,"0900      ",6.04,0.39,0.300,33,0.98,"DF                                                "
46188,06/30/2008,"745       ",6.01,0.35,0.300,39,1.09,"JF                                                "
46189,07/01/2008,"745       ",6.13,0.48,0.100,47,1.93,"DF                                                "
46190,07/02/2008,"1207      ",6.03,0.42,0.100,42,1.50,"TML                                               "
46191,07/03/2008,"655       ",6.05,0.45,0.300,44,1.66,"DF                                                "
46192,07/04/2008,"0825      ",5.76,0.46,0.200,50,2.15,"TF                                                "
46193,07/05/2008,"935       ",6.10,0.57,0.300,50,2.21,"TCF                                               "
46194,07/06/2008,"0820      ",6.06,0.51,0.200,48,2.27,"RH                                                "
46195,07/07/2008,"0845      ",6.07,0.52,0.300,50,2.25,"JF                                                "
46196,07/08/2008,"815       ",6.05,0.41,0.300,46,1.64,"DF                                                "
46197,07/09/2008,"710       ",6.02,0.36,0.400,37,1.09,"DF                                                "
46198,07/10/2008,"725       ",5.93,0.33,0.300,34,1.06,"DF                                                "
46199,07/11/2008,"900       ",5.94,0.34,0.300,35,1.11,"TL                                                "
46200,07/12/2008,"825       ",6.02,0.37,0.300,37,1.19,"TL                                                "
46201,07/13/2008,"0913      ",6.07,0.42,0.400,44,1.72,"TL                                                "
46202,07/14/2008,"0755      ",6.04,0.38,0.300,40,1.24,"JF                                                "
46203,07/15/2008,"805       ",6.10,0.44,0.100,40,1.32,"DF                                                "
46204,07/16/2008,"842       ",6.09,0.53,0.400,45,2.19,"TL                                                "
46205,07/17/2008,"730       ",6.08,0.44,0.300,41,1.48,"JF                                                "
46206,07/18/2008,"955       ",6.07,0.41,0.200,39,1.52,"TL                                                "
46207,07/19/2008,"1615      ",5.89,0.66,0.400,58,3.04,"TCF                                               "
46208,07/20/2008,"1025      ",6.00,0.57,0.200,44,2.39,"TL                                                "
46209,07/21/2008,"0350      ",6.15,0.83,0.300,36,2.32,"SBK                                               "
46210,07/22/2008,"1025      ",5.89,0.33,0.100,37,1.76,"TF                                                "
46211,07/23/2008,"0905      ",5.89,0.47,0.200,38,2.38,"JF                                                "
46212,07/24/2008,"1220      ",6.03,0.29,0.100,25,1.39,"TL                                                "
46213,07/25/2008,"827       ",6.02,0.37,0.300,30,1.40,"tl                                                "
46214,07/26/2008,"0836      ",5.93,0.42,0.200,36,1.57,"TL                                                "
46215,07/27/2008,"1015      ",6.00,0.30,0.100,25,1.15,"TL                                                "
46216,07/28/2008,"755       ",6.02,0.34,0.020,30,1.28,"JF                                                "
46217,07/29/2008,"935       ",5.99,0.38,0.200,32,1.59,"RH +SV                                            "
46218,07/30/2008,"920       ",5.89,0.32,0.030,36,1.11,"DF                                                "
46219,07/31/2008,"0835      ",6.06,0.32,0.300,31,1.09,"TL                                                "
46220,08/01/2008,"755       ",5.99,0.36,0.200,33,1.03,"RH +SV                                            "
46221,08/02/2008,"920       ",6.03,0.33,0.200,34,1.15,"TML                                               "
46222,08/03/2008,"845       ",5.97,0.35,0.300,32,1.59,"TL                                                "
46223,08/04/2008,"0840      ",6.01,0.34,0.300,31,1.41,"JF                                                "
46224,08/05/2008,"820       ",5.92,0.35,0.300,36,1.61,"DF                                                "
46225,08/06/2008,"830       ",5.91,0.38,0.300,28,1.48,"DF                                                "
46226,08/07/2008,"0940      ",6.11,0.35,0.400,26,1.37,"DF                                                "
46227,08/08/2008,"910       ",5.98,0.40,0.400,30,1.43,"TL                                                "